Back to catalog

FENGYUN 1C DEB

AliveSSO
NORAD 31510·DEBRIS·🇨🇳 China

Launched May 10, 1999 from Taiyuan Satellite Launch Center

Loading…

Next Passes (next 24 hours)

TLE

FreshSource: Space-Track

Epoch: Sep 12, 2026, 05:39 UTC

1 31510U 99025BWZ 26255.23554578  .00000565  00000-0  25776-3 0  9990
2 31510  98.5641 252.6221 0035652 251.5040 170.8272 14.25114772  3007

Track FENGYUN 1C DEB in real time with AllMySat

Download on the App Store